Location: Flotzheim
(48.8375°N, 10.8136°E)
Time: 03:10:38
(UTC+00:00)

Helios 1A Rocket - Pass Details

Date: 23 January 2021
Orbit: 562 x 587 km, 98.3° (Epoch: 26 February)

Event Time Altitude Azimuth Distance (km) Brightness Sun altitude
Rises 17:09:10 0° 135° (SE) 2,806 6.2 -11.3°
Reaches altitude 10° 17:11:31 10° 124° (SE) 1,911 5.2 -11.6°
Maximum altitude 17:15:05 28° 65° (ENE) 1,108 3.8 -12.2°
Drops below altitude 10° 17:18:40 10° 6° (N) 1,923 5.4 -12.8°
Sets 17:21:02 0° 355° (N) 2,827 6.4 -13.2°
